Year,Month,Day,Hour,Minute,Value (Times are PST for windspeed in km/hr)
2010,07,09,00,00,2.90
2010,07,09,00,01,1.30
2010,07,09,00,02,2.00
2010,07,09,00,03,2.20
2010,07,09,00,04,4.70
2010,07,09,00,05,3.10
2010,07,09,00,06,3.80
2010,07,09,00,07,0.90
2010,07,09,00,08,0.90
2010,07,09,00,09,0.30
2010,07,09,00,10,0.40
2010,07,09,00,11,0.30
2010,07,09,00,12,0.30
2010,07,09,00,13,0.10
2010,07,09,00,14,0.80
2010,07,09,00,15,0.20
2010,07,09,00,16,0.10
2010,07,09,00,17,0.40
2010,07,09,00,18,0.50
2010,07,09,00,19,2.00
2010,07,09,00,20,2.00
2010,07,09,00,21,1.90
2010,07,09,00,22,1.50
2010,07,09,00,23,2.10
2010,07,09,00,24,1.30
2010,07,09,00,25,1.40
2010,07,09,00,26,2.70
2010,07,09,00,27,1.70
2010,07,09,00,28,1.60
2010,07,09,00,29,2.10
2010,07,09,00,30,2.20
2010,07,09,00,31,3.50
2010,07,09,00,32,2.00
2010,07,09,00,33,4.40
2010,07,09,00,34,2.60
2010,07,09,00,35,4.20
2010,07,09,00,36,4.00
2010,07,09,00,37,5.30
2010,07,09,00,38,4.70
2010,07,09,00,39,3.90
2010,07,09,00,40,4.10
2010,07,09,00,41,3.30
2010,07,09,00,42,3.10
2010,07,09,00,43,7.70
2010,07,09,00,44,6.40
2010,07,09,00,45,5.60
2010,07,09,00,46,5.60
2010,07,09,00,47,9.90
2010,07,09,00,48,5.10
2010,07,09,00,49,8.50
2010,07,09,00,50,5.80
2010,07,09,00,51,4.50
2010,07,09,00,52,2.80
2010,07,09,00,53,1.90
2010,07,09,00,54,1.60
2010,07,09,00,55,1.10
2010,07,09,00,56,1.10
2010,07,09,00,57,1.90
2010,07,09,00,58,0.90
2010,07,09,00,59,2.10
2010,07,09,01,00,4.30
2010,07,09,01,01,8.00
2010,07,09,01,02,6.90
2010,07,09,01,03,9.70
2010,07,09,01,04,6.60
2010,07,09,01,05,10.80
2010,07,09,01,06,8.80
2010,07,09,01,07,8.80
2010,07,09,01,08,8.90
2010,07,09,01,09,11.70
2010,07,09,01,10,14.30
2010,07,09,01,11,14.40
2010,07,09,01,12,12.90
2010,07,09,01,13,6.60
2010,07,09,01,14,5.60
2010,07,09,01,15,0.50
2010,07,09,01,16,0.20
2010,07,09,01,17,0.20
2010,07,09,01,18,0.30
2010,07,09,01,19,1.40
2010,07,09,01,20,0.90
2010,07,09,01,21,0.20
2010,07,09,01,22,0.00
2010,07,09,01,23,0.00
2010,07,09,01,24,0.00
2010,07,09,01,25,0.00
2010,07,09,01,26,0.20
2010,07,09,01,27,0.20
2010,07,09,01,28,0.80
2010,07,09,01,29,0.00
2010,07,09,01,30,0.10
2010,07,09,01,31,0.00
2010,07,09,01,32,0.00
2010,07,09,01,33,0.00
2010,07,09,01,34,0.00
2010,07,09,01,35,0.00
2010,07,09,01,36,0.10
2010,07,09,01,37,1.30
2010,07,09,01,38,1.10
2010,07,09,01,39,3.10
2010,07,09,01,40,2.00
2010,07,09,01,41,0.10
2010,07,09,01,42,0.10
2010,07,09,01,43,0.00
2010,07,09,01,44,0.00
2010,07,09,01,45,0.00
2010,07,09,01,46,0.00
2010,07,09,01,47,0.00
2010,07,09,01,48,0.00
2010,07,09,01,49,0.00
2010,07,09,01,50,0.10
2010,07,09,01,51,0.00
2010,07,09,01,52,0.00
2010,07,09,01,53,0.00
2010,07,09,01,54,0.00
2010,07,09,01,55,0.00
2010,07,09,01,56,0.00
2010,07,09,01,57,0.00
2010,07,09,01,58,0.20
2010,07,09,01,59,0.60
2010,07,09,02,00,0.60
2010,07,09,02,01,0.20
2010,07,09,02,02,0.00
2010,07,09,02,03,0.00
2010,07,09,02,04,0.00
2010,07,09,02,05,0.00
2010,07,09,02,06,0.00
2010,07,09,02,07,0.00
2010,07,09,02,08,0.00
2010,07,09,02,09,0.00
2010,07,09,02,10,0.00
2010,07,09,02,11,0.00
2010,07,09,02,12,0.00
2010,07,09,02,13,0.00
2010,07,09,02,14,0.00
2010,07,09,02,15,0.00
2010,07,09,02,16,0.00
2010,07,09,02,17,0.00
2010,07,09,02,18,0.00
2010,07,09,02,19,0.00
2010,07,09,02,20,0.00
2010,07,09,02,21,0.00
2010,07,09,02,22,0.10
2010,07,09,02,23,0.00
2010,07,09,02,24,0.20
2010,07,09,02,25,0.10
2010,07,09,02,26,0.10
2010,07,09,02,27,0.10
2010,07,09,02,28,0.00
2010,07,09,02,29,0.00
2010,07,09,02,30,0.00
2010,07,09,02,31,0.00
2010,07,09,02,32,0.10
2010,07,09,02,33,0.00
2010,07,09,02,34,0.00
2010,07,09,02,35,0.20
2010,07,09,02,36,1.00
2010,07,09,02,37,0.20
2010,07,09,02,38,0.00
2010,07,09,02,39,0.00
2010,07,09,02,40,0.10
2010,07,09,02,41,0.20
2010,07,09,02,42,0.10
2010,07,09,02,43,0.00
2010,07,09,02,44,0.30
2010,07,09,02,45,0.30
2010,07,09,02,46,0.20
2010,07,09,02,47,0.00
2010,07,09,02,48,0.00
2010,07,09,02,49,0.00
2010,07,09,02,50,0.00
2010,07,09,02,51,0.00
2010,07,09,02,52,0.00
2010,07,09,02,53,0.10
2010,07,09,02,54,0.00
2010,07,09,02,55,0.00
2010,07,09,02,56,0.00
2010,07,09,02,57,0.00
2010,07,09,02,58,0.00
2010,07,09,02,59,0.00
2010,07,09,03,00,0.10
2010,07,09,03,01,0.10
2010,07,09,03,02,0.60
2010,07,09,03,03,0.20
2010,07,09,03,04,0.10
2010,07,09,03,05,0.20
2010,07,09,03,06,0.20
2010,07,09,03,07,0.10
2010,07,09,03,08,0.00
2010,07,09,03,09,0.10
2010,07,09,03,10,0.10
2010,07,09,03,11,0.20
2010,07,09,03,12,1.10
2010,07,09,03,13,0.40
2010,07,09,03,14,0.10
2010,07,09,03,15,0.00
2010,07,09,03,16,0.10
2010,07,09,03,17,0.10
2010,07,09,03,18,0.00
2010,07,09,03,19,0.20
2010,07,09,03,20,0.40
2010,07,09,03,21,1.40
2010,07,09,03,22,0.60
2010,07,09,03,23,0.70
2010,07,09,03,24,0.00
2010,07,09,03,25,0.00
2010,07,09,03,26,0.20
2010,07,09,03,27,0.20
2010,07,09,03,28,0.90
2010,07,09,03,29,0.30
2010,07,09,03,30,1.40
2010,07,09,03,31,1.70
2010,07,09,03,32,1.50
2010,07,09,03,33,1.50
2010,07,09,03,34,0.30
2010,07,09,03,35,0.00
2010,07,09,03,36,0.10
2010,07,09,03,37,0.10
2010,07,09,03,38,0.00
2010,07,09,03,39,0.10
2010,07,09,03,40,0.00
2010,07,09,03,41,0.00
2010,07,09,03,42,0.00
2010,07,09,03,43,0.00
2010,07,09,03,44,0.00
2010,07,09,03,45,0.00
2010,07,09,03,46,0.00
2010,07,09,03,47,0.20
2010,07,09,03,48,0.00
2010,07,09,03,49,0.00
2010,07,09,03,50,0.00
2010,07,09,03,51,0.00
2010,07,09,03,52,0.00
2010,07,09,03,53,0.00
2010,07,09,03,54,0.00
2010,07,09,03,55,0.00
2010,07,09,03,56,0.00
2010,07,09,03,57,0.00
2010,07,09,03,58,0.00
2010,07,09,03,59,0.00
2010,07,09,04,00,0.10
2010,07,09,04,01,0.00
2010,07,09,04,02,0.10
2010,07,09,04,03,0.00
2010,07,09,04,04,0.00
2010,07,09,04,05,0.00
2010,07,09,04,06,0.00
2010,07,09,04,07,0.00
2010,07,09,04,08,0.00
2010,07,09,04,09,0.00
2010,07,09,04,10,0.00
2010,07,09,04,11,0.00
2010,07,09,04,12,0.00
2010,07,09,04,13,0.00
2010,07,09,04,14,0.00
2010,07,09,04,15,0.00
2010,07,09,04,16,0.00
2010,07,09,04,17,0.00
2010,07,09,04,18,0.00
2010,07,09,04,19,0.00
2010,07,09,04,20,0.00
2010,07,09,04,21,0.00
2010,07,09,04,22,0.00
2010,07,09,04,23,0.00
2010,07,09,04,24,0.00
2010,07,09,04,25,0.00
2010,07,09,04,26,0.00
2010,07,09,04,27,0.00
2010,07,09,04,28,0.10
2010,07,09,04,29,0.00
2010,07,09,04,30,0.00
2010,07,09,04,31,0.00
2010,07,09,04,32,0.10
2010,07,09,04,33,0.00
2010,07,09,04,34,0.00
2010,07,09,04,35,0.00
2010,07,09,04,36,0.00
2010,07,09,04,37,0.00
2010,07,09,04,38,0.00
2010,07,09,04,39,0.00
2010,07,09,04,40,0.00
2010,07,09,04,41,0.00
2010,07,09,04,42,0.00
2010,07,09,04,43,0.00
2010,07,09,04,44,0.00
2010,07,09,04,45,0.00
2010,07,09,04,46,0.00
2010,07,09,04,47,0.00
2010,07,09,04,48,0.00
2010,07,09,04,49,0.10
2010,07,09,04,50,0.20
2010,07,09,04,51,0.00
2010,07,09,04,52,0.00
2010,07,09,04,53,0.10
2010,07,09,04,54,0.10
2010,07,09,04,55,0.00
2010,07,09,04,56,0.00
2010,07,09,04,57,0.00
2010,07,09,04,58,0.00
2010,07,09,04,59,0.00
2010,07,09,05,00,0.00
2010,07,09,05,01,0.00
2010,07,09,05,02,0.00
2010,07,09,05,03,0.00
2010,07,09,05,04,0.10
2010,07,09,05,05,0.00
2010,07,09,05,06,0.00
2010,07,09,05,07,0.00
2010,07,09,05,08,0.00
2010,07,09,05,09,0.00
2010,07,09,05,10,0.00
2010,07,09,05,11,0.00
2010,07,09,05,12,0.00
2010,07,09,05,13,0.00
2010,07,09,05,14,0.00
2010,07,09,05,15,0.00
2010,07,09,05,16,0.00
2010,07,09,05,17,0.00
2010,07,09,05,18,0.00
2010,07,09,05,19,0.00
2010,07,09,05,20,0.00
2010,07,09,05,21,0.30
2010,07,09,05,22,0.10
2010,07,09,05,23,0.00
2010,07,09,05,24,0.10
2010,07,09,05,25,0.10
2010,07,09,05,26,0.00
2010,07,09,05,27,0.10
2010,07,09,05,28,0.00
2010,07,09,05,29,0.00
2010,07,09,05,30,0.00
2010,07,09,05,31,0.00
2010,07,09,05,32,0.00
2010,07,09,05,33,0.00
2010,07,09,05,34,0.00
2010,07,09,05,35,0.00
2010,07,09,05,36,0.00
2010,07,09,05,37,0.00
2010,07,09,05,38,0.00
2010,07,09,05,39,0.00
2010,07,09,05,40,0.00
2010,07,09,05,41,0.00
2010,07,09,05,42,0.00
2010,07,09,05,43,0.00
2010,07,09,05,44,0.00
2010,07,09,05,45,0.00
2010,07,09,05,46,0.00
2010,07,09,05,47,0.00
2010,07,09,05,48,0.00
2010,07,09,05,49,0.00
2010,07,09,05,50,0.00
2010,07,09,05,51,0.00
2010,07,09,05,52,0.00
2010,07,09,05,53,0.00
2010,07,09,05,54,0.00
2010,07,09,05,55,0.00
2010,07,09,05,56,0.00
2010,07,09,05,57,0.00
2010,07,09,05,58,0.00
2010,07,09,05,59,0.00
2010,07,09,06,00,0.00
2010,07,09,06,01,0.00
2010,07,09,06,02,0.00
2010,07,09,06,03,0.00
2010,07,09,06,04,0.00
2010,07,09,06,05,0.00
2010,07,09,06,06,0.00
2010,07,09,06,07,0.00
2010,07,09,06,08,0.00
2010,07,09,06,09,0.00
2010,07,09,06,10,0.00
2010,07,09,06,11,0.00
2010,07,09,06,12,0.00
2010,07,09,06,13,0.00
2010,07,09,06,14,0.00
2010,07,09,06,15,0.00
2010,07,09,06,16,0.00
2010,07,09,06,17,0.00
2010,07,09,06,18,0.00
2010,07,09,06,19,0.00
2010,07,09,06,20,0.00
2010,07,09,06,21,0.00
2010,07,09,06,22,0.00
2010,07,09,06,23,0.00
2010,07,09,06,24,0.00
2010,07,09,06,25,0.00
2010,07,09,06,26,0.00
2010,07,09,06,27,0.00
2010,07,09,06,28,0.00
2010,07,09,06,29,0.00
2010,07,09,06,30,0.00
2010,07,09,06,31,0.00
2010,07,09,06,32,0.00
2010,07,09,06,33,0.00
2010,07,09,06,34,0.00
2010,07,09,06,35,0.00
2010,07,09,06,36,0.00
2010,07,09,06,37,0.00
2010,07,09,06,38,0.00
2010,07,09,06,39,0.00
2010,07,09,06,40,0.00
2010,07,09,06,41,0.00
2010,07,09,06,42,0.00
2010,07,09,06,43,0.00
2010,07,09,06,44,0.00
2010,07,09,06,45,0.00
2010,07,09,06,46,0.00
2010,07,09,06,47,0.00
2010,07,09,06,48,0.00
2010,07,09,06,49,0.00
2010,07,09,06,50,0.00
2010,07,09,06,51,0.00
2010,07,09,06,52,0.00
2010,07,09,06,53,0.00
2010,07,09,06,54,0.00
2010,07,09,06,55,0.00
2010,07,09,06,56,0.00
2010,07,09,06,57,0.00
2010,07,09,06,58,0.00
2010,07,09,06,59,0.00
2010,07,09,07,00,0.00
2010,07,09,07,01,0.00
2010,07,09,07,02,0.00
2010,07,09,07,03,0.00
2010,07,09,07,04,0.00
2010,07,09,07,05,0.00
2010,07,09,07,06,0.00
2010,07,09,07,07,0.00
2010,07,09,07,08,0.00
2010,07,09,07,09,0.00
2010,07,09,07,10,0.00
2010,07,09,07,11,0.00
2010,07,09,07,12,0.00
2010,07,09,07,13,0.00
2010,07,09,07,14,0.00
2010,07,09,07,15,0.00
2010,07,09,07,16,0.00
2010,07,09,07,17,0.00
2010,07,09,07,18,0.00
2010,07,09,07,19,0.00
2010,07,09,07,20,0.00
2010,07,09,07,21,0.00
2010,07,09,07,22,0.00
2010,07,09,07,23,0.00
2010,07,09,07,24,0.00
2010,07,09,07,25,0.00
2010,07,09,07,26,0.00
2010,07,09,07,27,0.00
2010,07,09,07,28,0.00
2010,07,09,07,29,0.00
2010,07,09,07,30,0.00
2010,07,09,07,31,0.00
2010,07,09,07,32,0.00
2010,07,09,07,33,0.00
2010,07,09,07,34,0.00
2010,07,09,07,35,0.00
2010,07,09,07,36,0.00
2010,07,09,07,37,0.00
2010,07,09,07,38,0.00
2010,07,09,07,39,0.00
2010,07,09,07,40,0.00
2010,07,09,07,41,0.00
2010,07,09,07,42,0.00
2010,07,09,07,43,0.00
2010,07,09,07,44,0.00
2010,07,09,07,45,0.00
2010,07,09,07,46,0.00
2010,07,09,07,47,0.00
2010,07,09,07,48,0.00
2010,07,09,07,49,0.00
2010,07,09,07,50,0.00
2010,07,09,07,51,0.00
2010,07,09,07,52,0.00
2010,07,09,07,53,0.00
2010,07,09,07,54,0.00
2010,07,09,07,55,0.00
2010,07,09,07,56,0.00
2010,07,09,07,57,0.00
2010,07,09,07,58,0.00
2010,07,09,07,59,0.00
2010,07,09,08,00,0.00
2010,07,09,08,01,0.00
2010,07,09,08,02,0.00
2010,07,09,08,03,0.00
2010,07,09,08,04,0.00
2010,07,09,08,05,0.00
2010,07,09,08,06,0.00
2010,07,09,08,07,0.00
2010,07,09,08,08,0.00
2010,07,09,08,09,0.00
2010,07,09,08,10,0.00
2010,07,09,08,11,0.00
2010,07,09,08,12,0.00
2010,07,09,08,13,0.00
2010,07,09,08,14,0.00
2010,07,09,08,15,0.00
2010,07,09,08,16,0.00
2010,07,09,08,17,0.00
2010,07,09,08,18,0.00
2010,07,09,08,19,0.00
2010,07,09,08,20,0.90
2010,07,09,08,21,2.00
2010,07,09,08,22,2.10
2010,07,09,08,23,4.80
2010,07,09,08,24,5.10
2010,07,09,08,25,5.50
2010,07,09,08,26,5.30
2010,07,09,08,27,5.10
2010,07,09,08,28,4.20
2010,07,09,08,29,3.80
2010,07,09,08,30,4.50
2010,07,09,08,31,5.20
2010,07,09,08,32,5.50
2010,07,09,08,33,4.80
2010,07,09,08,34,5.00
2010,07,09,08,35,4.00
2010,07,09,08,36,4.20
2010,07,09,08,37,3.20
2010,07,09,08,38,2.60
2010,07,09,08,39,2.40
2010,07,09,08,40,2.80
2010,07,09,08,41,4.70
2010,07,09,08,42,4.60
2010,07,09,08,43,5.60
2010,07,09,08,44,5.50
2010,07,09,08,45,2.90
2010,07,09,08,46,3.10
2010,07,09,08,47,3.70
2010,07,09,08,48,3.50
2010,07,09,08,49,3.30
2010,07,09,08,50,3.20
2010,07,09,08,51,2.70
2010,07,09,08,52,3.60
2010,07,09,08,53,4.30
2010,07,09,08,54,0.50
2010,07,09,08,55,0.90
2010,07,09,08,56,2.10
2010,07,09,08,57,5.10
2010,07,09,08,58,3.80
2010,07,09,08,59,6.30
2010,07,09,09,00,7.60
2010,07,09,09,01,6.70
2010,07,09,09,02,7.30
2010,07,09,09,03,6.80
2010,07,09,09,04,7.30
2010,07,09,09,05,8.40
2010,07,09,09,06,7.50
2010,07,09,09,07,6.80
2010,07,09,09,08,7.20
2010,07,09,09,09,5.00
2010,07,09,09,10,6.10
2010,07,09,09,11,5.40
2010,07,09,09,12,4.70
2010,07,09,09,13,3.20
2010,07,09,09,14,2.70
2010,07,09,09,15,5.30
2010,07,09,09,16,4.40
2010,07,09,09,17,1.90
2010,07,09,09,18,2.60
2010,07,09,09,19,2.00
2010,07,09,09,20,5.20
2010,07,09,09,21,2.90
2010,07,09,09,22,5.80
2010,07,09,09,23,6.80
2010,07,09,09,24,4.70
2010,07,09,09,25,3.90
2010,07,09,09,26,4.30
2010,07,09,09,27,3.70
2010,07,09,09,28,3.10
2010,07,09,09,29,3.30
2010,07,09,09,30,1.60
2010,07,09,09,31,3.30
2010,07,09,09,32,1.70
2010,07,09,09,33,1.10
2010,07,09,09,34,2.30
2010,07,09,09,35,1.20
2010,07,09,09,36,2.80
2010,07,09,09,37,2.00
2010,07,09,09,38,0.40
2010,07,09,09,39,1.90
2010,07,09,09,40,3.40
2010,07,09,09,41,2.50
2010,07,09,09,42,1.70
2010,07,09,09,43,1.80
2010,07,09,09,44,1.00
2010,07,09,09,45,3.40
2010,07,09,09,46,1.40
2010,07,09,09,47,1.00
2010,07,09,09,48,2.60
2010,07,09,09,49,2.50
2010,07,09,09,50,2.70
2010,07,09,09,51,2.70
2010,07,09,09,52,2.50
2010,07,09,09,53,4.00
2010,07,09,09,54,2.10
2010,07,09,09,55,3.50
2010,07,09,09,56,3.90
2010,07,09,09,57,2.90
2010,07,09,09,58,3.60
2010,07,09,09,59,1.40
2010,07,09,10,00,0.80
2010,07,09,10,01,2.70
2010,07,09,10,02,2.10
2010,07,09,10,03,6.10
2010,07,09,10,04,7.30
2010,07,09,10,05,7.30
2010,07,09,10,06,6.40
2010,07,09,10,07,2.50
2010,07,09,10,08,1.20
2010,07,09,10,09,1.40
2010,07,09,10,10,2.50
2010,07,09,10,11,1.90
2010,07,09,10,12,2.00
2010,07,09,10,13,2.30
2010,07,09,10,14,1.90
2010,07,09,10,15,1.30
2010,07,09,10,16,2.10
2010,07,09,10,17,2.40
2010,07,09,10,18,3.80
2010,07,09,10,19,1.70
2010,07,09,10,20,2.40
2010,07,09,10,21,1.90
2010,07,09,10,22,4.90
2010,07,09,10,23,5.30
2010,07,09,10,24,4.60
2010,07,09,10,25,7.10
2010,07,09,10,26,4.30
2010,07,09,10,27,4.10
2010,07,09,10,28,4.90
2010,07,09,10,29,3.40
2010,07,09,10,30,3.10
2010,07,09,10,31,4.10
2010,07,09,10,32,5.20
2010,07,09,10,33,3.20
2010,07,09,10,34,2.20
2010,07,09,10,35,3.70
2010,07,09,10,36,7.50
2010,07,09,10,37,5.00
2010,07,09,10,38,4.90
2010,07,09,10,39,1.70
2010,07,09,10,40,1.10
2010,07,09,10,41,1.80
2010,07,09,10,42,0.60
2010,07,09,10,43,1.90
2010,07,09,10,44,3.40
2010,07,09,10,45,2.60
2010,07,09,10,46,2.80
2010,07,09,10,47,6.60
2010,07,09,10,48,8.20
2010,07,09,10,49,5.10
2010,07,09,10,50,6.90
2010,07,09,10,51,4.30
2010,07,09,10,52,2.70
2010,07,09,10,53,3.90
2010,07,09,10,54,5.10
2010,07,09,10,55,0.80
2010,07,09,10,56,4.10
2010,07,09,10,57,2.80
2010,07,09,10,58,5.80
2010,07,09,10,59,6.80
2010,07,09,11,00,7.60
2010,07,09,11,01,7.60
2010,07,09,11,02,6.60
2010,07,09,11,03,7.40
2010,07,09,11,04,4.60
2010,07,09,11,05,7.10
2010,07,09,11,06,2.80
2010,07,09,11,07,2.60
2010,07,09,11,08,3.80
2010,07,09,11,09,2.70
2010,07,09,11,10,2.50
2010,07,09,11,11,3.10
2010,07,09,11,12,3.00
2010,07,09,11,13,3.10
2010,07,09,11,14,2.40
2010,07,09,11,15,1.60
2010,07,09,11,16,2.60
2010,07,09,11,17,1.40
2010,07,09,11,18,2.90
2010,07,09,11,19,4.70
2010,07,09,11,20,4.10
2010,07,09,11,21,5.30
2010,07,09,11,22,4.00
2010,07,09,11,23,3.50
2010,07,09,11,24,6.20
2010,07,09,11,25,3.30
2010,07,09,11,26,0.80
2010,07,09,11,27,4.80
2010,07,09,11,28,5.70
2010,07,09,11,29,4.70
2010,07,09,11,30,7.80
2010,07,09,11,31,8.00
2010,07,09,11,32,4.80
2010,07,09,11,33,7.10
2010,07,09,11,34,7.40
2010,07,09,11,35,5.70
2010,07,09,11,36,2.50
2010,07,09,11,37,1.40
2010,07,09,11,38,5.50
2010,07,09,11,39,1.50
2010,07,09,11,40,7.50
2010,07,09,11,41,5.10
2010,07,09,11,42,2.50
2010,07,09,11,43,2.40
2010,07,09,11,44,6.40
2010,07,09,11,45,9.60
2010,07,09,11,46,7.20
2010,07,09,11,47,6.10
2010,07,09,11,48,2.60
2010,07,09,11,49,0.10
2010,07,09,11,50,4.90
2010,07,09,11,51,6.40
2010,07,09,11,52,7.30
2010,07,09,11,53,6.90
2010,07,09,11,54,4.70
2010,07,09,11,55,6.10
2010,07,09,11,56,6.60
2010,07,09,11,57,5.30
2010,07,09,11,58,5.20
2010,07,09,11,59,5.30
2010,07,09,12,00,3.30
2010,07,09,12,01,4.30
2010,07,09,12,02,2.50
2010,07,09,12,03,2.60
2010,07,09,12,04,3.00
2010,07,09,12,05,3.20
2010,07,09,12,06,6.10
2010,07,09,12,07,2.70
2010,07,09,12,08,3.20
2010,07,09,12,09,3.60
2010,07,09,12,10,3.90
2010,07,09,12,11,0.80
2010,07,09,12,12,1.60
2010,07,09,12,13,2.00
2010,07,09,12,14,4.10
2010,07,09,12,15,2.50
2010,07,09,12,16,6.20
2010,07,09,12,17,4.40
2010,07,09,12,18,4.10
2010,07,09,12,19,5.80
2010,07,09,12,20,2.30
2010,07,09,12,21,4.00
2010,07,09,12,22,5.60
2010,07,09,12,23,7.70
2010,07,09,12,24,8.70
2010,07,09,12,25,8.00
2010,07,09,12,26,5.10
2010,07,09,12,27,7.90
2010,07,09,12,28,5.80
2010,07,09,12,29,6.40
2010,07,09,12,30,3.50
2010,07,09,12,31,1.10
2010,07,09,12,32,3.50
2010,07,09,12,33,4.30
2010,07,09,12,34,2.50
2010,07,09,12,35,1.80
2010,07,09,12,36,2.60
2010,07,09,12,37,3.70
2010,07,09,12,38,7.80
2010,07,09,12,39,7.40
2010,07,09,12,40,6.20
2010,07,09,12,41,3.10
2010,07,09,12,42,1.70
2010,07,09,12,43,1.80
2010,07,09,12,44,3.00
2010,07,09,12,45,3.30
2010,07,09,12,46,4.00
2010,07,09,12,47,2.60
2010,07,09,12,48,3.20
2010,07,09,12,49,3.90
2010,07,09,12,50,1.40
2010,07,09,12,51,2.70
2010,07,09,12,52,5.30
2010,07,09,12,53,5.20
2010,07,09,12,54,3.90
2010,07,09,12,55,3.80
2010,07,09,12,56,4.00
2010,07,09,12,57,4.60
2010,07,09,12,58,3.10
2010,07,09,12,59,3.30
2010,07,09,13,00,6.50
2010,07,09,13,01,5.40
2010,07,09,13,02,1.90
2010,07,09,13,03,4.30
2010,07,09,13,04,3.70
2010,07,09,13,05,2.60
2010,07,09,13,06,1.90
2010,07,09,13,07,3.20
2010,07,09,13,08,2.30
2010,07,09,13,09,2.60
2010,07,09,13,10,2.10
2010,07,09,13,11,1.20
2010,07,09,13,12,4.20
2010,07,09,13,13,7.00
2010,07,09,13,14,7.10
2010,07,09,13,15,2.50
2010,07,09,13,16,2.40
2010,07,09,13,17,3.30
2010,07,09,13,18,6.60
2010,07,09,13,19,8.10
2010,07,09,13,20,2.90
2010,07,09,13,21,2.30
2010,07,09,13,22,5.20
2010,07,09,13,23,8.00
2010,07,09,13,24,3.90
2010,07,09,13,25,6.50
2010,07,09,13,26,5.70
2010,07,09,13,27,3.90
2010,07,09,13,28,4.50
2010,07,09,13,29,2.00
2010,07,09,13,30,5.40
2010,07,09,13,31,3.50
2010,07,09,13,32,8.00
2010,07,09,13,33,8.20
2010,07,09,13,34,4.00
2010,07,09,13,35,3.20
2010,07,09,13,36,3.00
2010,07,09,13,37,1.70
2010,07,09,13,38,4.90
2010,07,09,13,39,6.40
2010,07,09,13,40,6.70
2010,07,09,13,41,6.80
2010,07,09,13,42,7.10
2010,07,09,13,43,4.80
2010,07,09,13,44,8.00
2010,07,09,13,45,6.80
2010,07,09,13,46,7.20
2010,07,09,13,47,5.40
2010,07,09,13,48,2.50
2010,07,09,13,49,8.10
2010,07,09,13,50,4.40
2010,07,09,13,51,6.90
2010,07,09,13,52,6.60
2010,07,09,13,53,4.70
2010,07,09,13,54,8.10
2010,07,09,13,55,5.60
2010,07,09,13,56,7.80
2010,07,09,13,57,8.30
2010,07,09,13,58,8.20
2010,07,09,13,59,6.50
2010,07,09,14,00,6.60
2010,07,09,14,01,6.60
2010,07,09,14,02,7.30
2010,07,09,14,03,4.90
2010,07,09,14,04,4.10
2010,07,09,14,05,7.90
2010,07,09,14,06,6.40
2010,07,09,14,07,2.90
2010,07,09,14,08,3.60
2010,07,09,14,09,4.10
2010,07,09,14,10,3.90
2010,07,09,14,11,3.10
2010,07,09,14,12,3.30
2010,07,09,14,13,7.40
2010,07,09,14,14,4.50
2010,07,09,14,15,5.80
2010,07,09,14,16,8.80
2010,07,09,14,17,6.90
2010,07,09,14,18,4.70
2010,07,09,14,19,6.40
2010,07,09,14,20,3.40
2010,07,09,14,21,5.30
2010,07,09,14,22,7.00
2010,07,09,14,23,4.60
2010,07,09,14,24,4.80
2010,07,09,14,25,6.40
2010,07,09,14,26,8.00
2010,07,09,14,27,5.50
2010,07,09,14,28,8.40
2010,07,09,14,29,4.10
2010,07,09,14,30,8.40
2010,07,09,14,31,7.10
2010,07,09,14,32,1.70
2010,07,09,14,33,4.70
2010,07,09,14,34,5.60
2010,07,09,14,35,6.30
2010,07,09,14,36,8.20
2010,07,09,14,37,8.70
2010,07,09,14,38,6.80
2010,07,09,14,39,6.60
2010,07,09,14,40,5.10
2010,07,09,14,41,4.90
2010,07,09,14,42,6.40
2010,07,09,14,43,6.20
2010,07,09,14,44,3.80
2010,07,09,14,45,4.50
2010,07,09,14,46,6.00
2010,07,09,14,47,3.00
2010,07,09,14,48,6.60
2010,07,09,14,49,2.80
2010,07,09,14,50,3.40
2010,07,09,14,51,7.20
2010,07,09,14,52,5.70
2010,07,09,14,53,2.70
2010,07,09,14,54,4.70
2010,07,09,14,55,2.90
2010,07,09,14,56,3.60
2010,07,09,14,57,1.60
2010,07,09,14,58,4.40
2010,07,09,14,59,6.20
2010,07,09,15,00,9.90
2010,07,09,15,01,7.10
2010,07,09,15,02,7.90
2010,07,09,15,03,8.30
2010,07,09,15,04,5.00
2010,07,09,15,05,6.40
2010,07,09,15,06,7.10
2010,07,09,15,07,7.40
2010,07,09,15,08,8.50
2010,07,09,15,09,7.10
2010,07,09,15,10,8.10
2010,07,09,15,11,8.10
2010,07,09,15,12,7.80
2010,07,09,15,13,7.20
2010,07,09,15,14,8.80
2010,07,09,15,15,5.70
2010,07,09,15,16,7.80
2010,07,09,15,17,4.60
2010,07,09,15,18,6.70
2010,07,09,15,19,4.30
2010,07,09,15,20,7.20
2010,07,09,15,21,4.20
2010,07,09,15,22,3.00
2010,07,09,15,23,3.30
2010,07,09,15,24,2.00
2010,07,09,15,25,7.60
2010,07,09,15,26,8.80
2010,07,09,15,27,4.10
2010,07,09,15,28,8.80
2010,07,09,15,29,1.90
2010,07,09,15,30,5.50
2010,07,09,15,31,5.40
2010,07,09,15,32,4.80
2010,07,09,15,33,4.00
2010,07,09,15,34,9.70
2010,07,09,15,35,4.60
2010,07,09,15,36,3.90
2010,07,09,15,37,2.30
2010,07,09,15,38,4.20
2010,07,09,15,39,5.10
2010,07,09,15,40,4.50
2010,07,09,15,41,2.20
2010,07,09,15,42,3.90
2010,07,09,15,43,2.80
2010,07,09,15,44,2.70
2010,07,09,15,45,10.30
2010,07,09,15,46,8.10
2010,07,09,15,47,10.00
2010,07,09,15,48,13.20
2010,07,09,15,49,8.50
2010,07,09,15,50,4.30
2010,07,09,15,51,6.80
2010,07,09,15,52,6.60
2010,07,09,15,53,6.80
2010,07,09,15,54,3.10
2010,07,09,15,55,2.80
2010,07,09,15,56,3.70
2010,07,09,15,57,5.60
2010,07,09,15,58,6.10
2010,07,09,15,59,6.70
2010,07,09,16,00,1.40
2010,07,09,16,01,3.80
2010,07,09,16,02,4.60
2010,07,09,16,03,1.70
2010,07,09,16,04,0.30
2010,07,09,16,05,5.10
2010,07,09,16,06,3.60
2010,07,09,16,07,3.50
2010,07,09,16,08,1.20
2010,07,09,16,09,1.70
2010,07,09,16,10,3.10
2010,07,09,16,11,5.00
2010,07,09,16,12,7.20
2010,07,09,16,13,4.80
2010,07,09,16,14,8.50
2010,07,09,16,15,4.90
2010,07,09,16,16,7.80
2010,07,09,16,17,6.40
2010,07,09,16,18,2.20
2010,07,09,16,19,2.70
2010,07,09,16,20,5.20
2010,07,09,16,21,3.00
2010,07,09,16,22,6.60
2010,07,09,16,23,7.10
2010,07,09,16,24,5.40
2010,07,09,16,25,3.90
2010,07,09,16,26,3.40
2010,07,09,16,27,2.20
2010,07,09,16,28,3.40
2010,07,09,16,29,3.70
2010,07,09,16,30,2.80
2010,07,09,16,31,0.30
2010,07,09,16,32,0.60
2010,07,09,16,33,1.40
2010,07,09,16,34,0.80
2010,07,09,16,35,0.70
2010,07,09,16,36,4.30
2010,07,09,16,37,3.00
2010,07,09,16,38,3.50
2010,07,09,16,39,4.10
2010,07,09,16,40,1.20
2010,07,09,16,41,1.30
2010,07,09,16,42,1.70
2010,07,09,16,43,0.60
2010,07,09,16,44,0.80
2010,07,09,16,45,4.70
2010,07,09,16,46,1.40
2010,07,09,16,47,1.00
2010,07,09,16,48,0.20
2010,07,09,16,49,2.80
2010,07,09,16,50,1.40
2010,07,09,16,51,6.50
2010,07,09,16,52,3.20
2010,07,09,16,53,3.30
2010,07,09,16,54,0.40
2010,07,09,16,55,0.10
2010,07,09,16,56,1.10
2010,07,09,16,57,1.50
2010,07,09,16,58,4.50
2010,07,09,16,59,0.30
2010,07,09,17,00,0.80
2010,07,09,17,01,1.30
2010,07,09,17,02,2.20
2010,07,09,17,03,4.10
2010,07,09,17,04,1.90
2010,07,09,17,05,1.10
2010,07,09,17,06,2.10
2010,07,09,17,07,0.30
2010,07,09,17,08,0.40
2010,07,09,17,09,0.90
2010,07,09,17,10,0.30
2010,07,09,17,11,1.40
2010,07,09,17,12,1.40
2010,07,09,17,13,0.40
2010,07,09,17,14,0.40
2010,07,09,17,15,1.80
2010,07,09,17,16,2.90
2010,07,09,17,17,1.50
2010,07,09,17,18,2.60
2010,07,09,17,19,3.40
2010,07,09,17,20,1.90
2010,07,09,17,21,0.60
2010,07,09,17,22,5.50
2010,07,09,17,23,2.20
2010,07,09,17,24,0.20
2010,07,09,17,25,1.30
2010,07,09,17,26,5.70
2010,07,09,17,27,4.70
2010,07,09,17,28,2.90
2010,07,09,17,29,2.60
2010,07,09,17,30,5.80
2010,07,09,17,31,2.10
2010,07,09,17,32,1.40
2010,07,09,17,33,0.50
2010,07,09,17,34,2.90
2010,07,09,17,35,5.30
2010,07,09,17,36,3.40
2010,07,09,17,37,2.90
2010,07,09,17,38,1.60
2010,07,09,17,39,2.30
2010,07,09,17,40,6.70
2010,07,09,17,41,7.60
2010,07,09,17,42,4.90
2010,07,09,17,43,1.50
2010,07,09,17,44,2.80
2010,07,09,17,45,2.10
2010,07,09,17,46,2.60
2010,07,09,17,47,3.60
2010,07,09,17,48,3.20
2010,07,09,17,49,4.10
2010,07,09,17,50,2.80
2010,07,09,17,51,1.90
2010,07,09,17,52,4.00
2010,07,09,17,53,1.50
2010,07,09,17,54,0.10
2010,07,09,17,55,1.00
2010,07,09,17,56,0.70
2010,07,09,17,57,2.40
2010,07,09,17,58,1.20
2010,07,09,17,59,2.10
2010,07,09,18,00,0.20
2010,07,09,18,01,0.00
2010,07,09,18,02,0.30
2010,07,09,18,03,1.10
2010,07,09,18,04,0.10
2010,07,09,18,05,0.00
2010,07,09,18,06,0.20